Find OneWeb SL0370

NORAD ID: 49296 Int'l Des: 2021-090 Owner: ONEWEBN Country: UK Constellation: oneweb operational
LEOCIRCULARPOLARONEWEB_TYPE

Live Position

Loading 3D Globe...

About OneWeb SL0370

Description loading...

Upcoming Passes

Passes for default location (London). Set your location on the main map for personalized predictions.

Altitude History

Loading altitude history...

Two-Line Element Set

1 49296U 21090T 26126.35476757 -.00000022 00000-0 -86564-4 0 9992
2 49296 87.9154 282.7854 0001565 99.3109 260.8202 13.20770454224348
Epoch: May 6, 2026 • Age: 10 hours

Current Status

Altitude 1211.7 km
Velocity 7.25 km/s
Sub-Earth Point -85.36°S, 106.69°E
Launch Date Oct 14, 2021
Age 4.5 years
Type internet

Technical Details

Classification Payload
Mass 148.00 kg
Dry Mass 140.00 kg
Total Mass 148.00 kg
Length 1.30 m
Diameter 1.00 m
Span 5.00 m
Shape Trapezoid+2 pan
Manufacturer ONEWUS
Bus Type ARROW
Phase Status In Orbit
Owner/State ONEWEBN/UK

Most Searched